Flag for Canada Weather past 2 weeks in Cape Dorset, Nunavut, Canada

Now
32 °F

Overcast.


Feels Like: 22 °F
Forecast: 32 / 38 °F
Wind: 13 mph from West

Location: Cape Dorset

Current Time: Aug 28, 2015 at 6:07:59 AM

Latest Report: Aug 28, 2015 at 5:00 AM


Visibility: 9 mi

Pressure: 29.51 "Hg

Humidity: 100%

Dew point: 32 °F

Location of Cape DorsetLocation

Historic Weather in Cape Dorset — Graph

°F

Cape Dorset temperature yesterday

Maximum temperature yesterday: 37 °F (at 2:00 AM)
Minimum temperature yesterday: 34 °F (at 7:00 AM)
Average temperature yesterday: 35 °F

Past Weeks' High & Low Weather Summary

 TemperatureHumidityPressure
High50 °F (Aug 13, 2:00 PM)100% (Aug 13, 8:00 PM)30.19 "Hg (Aug 13, 8:00 PM)
Low32 °F (Aug 18, 2:51 AM)57% (Aug 13, 7:00 AM)29.41 "Hg (Aug 14, 1:58 AM)
Average39 °F91%29.77 "Hg
* Reported Aug 13 5:00 AM — Aug 28 5:00 AM, Cape Dorset, Weather by CustomWeather, © 2015

Note: Actual official high and low records may vary slightly from our data, if they occured in-between our weather recording intervals... More about our weather records

Advertising

Cape Dorset weather history for previous 24 hours

 ConditionsComfort  
Time TempWeatherWind HumidityBarometerVisibility
5:00 AM
Fri, Aug 28
32 °FOvercast.13 mph100%29.51 "Hg9 mi
4:00 AM32 °FMostly cloudy.13 mph100%29.51 "Hg9 mi
3:00 AM32 °FOvercast.14 mph100%29.51 "Hg9 mi
2:46 AM34 °FOvercast.14 mph93%29.50 "Hg9 mi
2:00 AM32 °FMostly cloudy.17 mph100%29.50 "Hg9 mi
1:00 AM32 °FOvercast.17 mph100%29.49 "Hg9 mi
12:00 AM32 °FOvercast.21 mph100%29.49 "Hg9 mi
11:00 PM
Thu, Aug 27
34 °FMostly cloudy.18 mph93%29.49 "Hg9 mi
10:00 PM34 °FLow clouds.17 mph100%29.49 "Hg7 mi
9:04 PM34 °FFog.16 mph100%29.49 "Hg5 mi
9:03 PM34 °FFog.16 mph100%29.49 "Hg6 mi
8:00 PM34 °FCloudy.17 mph100%29.48 "Hg9 mi
7:00 PM34 °FMore clouds than sun.13 mph100%29.49 "Hg9 mi
6:00 PM36 °FMore clouds than sun.17 mph93%29.48 "Hg9 mi
5:00 PM36 °FMostly cloudy.16 mph93%29.47 "Hg9 mi
4:00 PM36 °FLow clouds.23 mph93%29.47 "Hg9 mi
3:00 PM36 °FOvercast.17 mph93%29.47 "Hg9 mi
2:00 PM37 °FOvercast.14 mph93%29.47 "Hg9 mi
1:00 PM37 °FOvercast.16 mph100%29.47 "Hg9 mi
12:00 PM37 °FLow clouds.15 mph100%29.47 "Hg15 mi
11:00 AM36 °FFog.15 mph100%29.47 "Hg15 mi
10:46 AM36 °FFog.16 mph100%29.47 "Hg15 mi
10:00 AM36 °FFog.15 mph100%29.48 "Hg3 mi
9:00 AM36 °FFog.13 mph100%29.48 "Hg1 mi
8:00 AM34 °FDrizzle. Fog.15 mph100%29.48 "Hg1 mi
7:00 AM34 °FDrizzle. Fog.6 mph100%29.49 "Hg1 mi
6:00 AM36 °FLow clouds.7 mph100%29.49 "Hg9 mi
Weather by CustomWeather, © 2015

See weather overviewHow to use our weather pages